| time (UTC) | temp F | wind direction | speed MPH | gust MPH | rain 1hr in | rain 24hr in | rain mn in | humidity % | barometer mb |
| 20260905011608 | 71 | 344 | 0.0 | 0.0 | 0.00 | 0.11 | 0.09 | 92 | 1012.5 |
| 20260905010031 | 72 | 344 | 0.0 | 0.0 | 0.00 | 0.11 | 0.09 | 91 | 1012.7 |
| 20260905004606 | 73 | 344 | 0.0 | 0.0 | 0.00 | 0.30 | 0.09 | 90 | 1012.4 |
| 20260905003033 | 73 | 344 | 0.0 | 0.0 | 0.00 | 0.30 | 0.09 | 88 | 1012.4 |
| 20260905001612 | 74 | 344 | 0.0 | 0.0 | 0.00 | 0.30 | 0.09 | 88 | 1012.4 |
| 20260905000031 | 74 | 344 | 0.0 | 0.0 | 0.00 | 0.30 | 0.09 | 87 | 1012.7 |
| 20260904234609 | 75 | 344 | 0.0 | 0.0 | 0.00 | 0.32 | 0.09 | 86 | 1012.5 |
| 20260904233037 | 75 | 344 | 0.0 | 0.0 | 0.00 | 0.32 | 0.09 | 86 | 1012.5 |
| 20260904231603 | 76 | 344 | 0.0 | 0.0 | 0.00 | 0.32 | 0.09 | 84 | 1012.4 |
| 20260904230023 | 77 | 344 | 0.0 | 0.0 | 0.00 | 0.32 | 0.09 | 82 | 1012.2 |
| 20260904224557 | 78 | 343 | 0.0 | 0.0 | 0.00 | 0.35 | 0.09 | 81 | 1012.1 |
| 20260904223136 | 78 | 342 | 0.0 | 2.0 | 0.00 | 0.35 | 0.09 | 79 | 1012.3 |
| 20260904221555 | 79 | 340 | 0.0 | 0.0 | 0.00 | 0.35 | 0.09 | 77 | 1012.1 |
| 20260904220008 | 80 | 340 | 0.0 | 2.0 | 0.00 | 0.35 | 0.09 | 75 | 1012.0 |
| 20260904214555 | 80 | 9 | 0.0 | 2.0 | 0.00 | 1.38 | 0.09 | 73 | 1012.0 |
| 20260904213018 | 81 | 328 | 1.0 | 5.0 | 0.00 | 1.38 | 0.09 | 70 | 1012.0 |
| 20260904211555 | 81 | 201 | 0.0 | 4.0 | 0.00 | 1.38 | 0.09 | 72 | 1011.8 |
| 20260904210114 | 80 | 215 | 1.0 | 4.0 | 0.00 | 1.38 | 0.09 | 76 | 1011.8 |
| 20260904204530 | 79 | 200 | 0.0 | 4.0 | 0.00 | 1.38 | 0.09 | 76 | 1012.1 |
| 20260904203007 | 79 | 360 | 0.0 | 5.0 | 0.00 | 1.38 | 0.09 | 78 | 1012.4 |
| 20260904201553 | 79 | 21 | 1.0 | 6.0 | 0.00 | 1.38 | 0.09 | 77 | 1012.7 |
| 20260904200015 | 79 | 188 | 0.0 | 4.0 | 0.00 | 1.38 | 0.09 | 77 | 1012.4 |
| 20260904194630 | 78 | 331 | 0.0 | 3.0 | 0.00 | 1.38 | 0.09 | 78 | 1012.2 |
| 20260904193033 | 78 | 360 | 1.0 | 4.0 | 0.00 | 1.38 | 0.09 | 81 | 1013.0 |
| 20260904191605 | 78 | 236 | 1.0 | 6.0 | 0.00 | 1.38 | 0.09 | 82 | 1013.8 |
| 20260904190113 | 78 | 15 | 3.0 | 8.0 | 0.00 | 1.38 | 0.09 | 79 | 1013.7 |
| 20260904184530 | 78 | 21 | 3.0 | 7.0 | 0.00 | 1.38 | 0.09 | 80 | 1014.1 |
| 20260904183104 | 78 | 15 | 1.0 | 5.0 | 0.00 | 1.38 | 0.09 | 85 | 1014.0 |
| 20260904181524 | 77 | 355 | 1.0 | 8.0 | 0.00 | 1.38 | 0.09 | 85 | 1013.9 |
| 20260904180116 | 76 | 39 | 1.0 | 4.0 | 0.00 | 1.38 | 0.09 | 88 | 1014.1 |
| 20260904174540 | 75 | 360 | 2.0 | 6.0 | 0.00 | 1.38 | 0.09 | 90 | 1014.2 |
| 20260904173117 | 75 | 184 | 0.0 | 4.0 | 0.00 | 1.38 | 0.09 | 92 | 1014.2 |
| 20260904171538 | 74 | 143 | 0.0 | 3.0 | 0.00 | 1.38 | 0.09 | 95 | 1014.2 |
| 20260904170113 | 72 | 133 | 0.0 | 2.0 | 0.00 | 1.38 | 0.09 | 96 | 1014.6 |
| 20260904164510 | 72 | 57 | 0.0 | 2.0 | 0.00 | 1.38 | 0.09 | 97 | 1014.7 |
| 20260904163047 | 72 | 19 | 0.0 | 2.0 | 0.00 | 1.38 | 0.09 | 97 | 1015.0 |
| 20260904161510 | 71 | 19 | 1.0 | 3.0 | 0.00 | 1.38 | 0.09 | 97 | 1015.4 |
| 20260904160051 | 71 | 17 | 1.0 | 4.0 | 0.00 | 1.38 | 0.09 | 97 | 1015.4 |
| 20260904154515 | 71 | 42 | 1.0 | 4.0 | 0.00 | 1.38 | 0.09 | 97 | 1015.6 |
| 20260904153021 | 71 | 10 | 2.0 | 5.0 | 0.01 | 1.38 | 0.09 | 98 | 1016.1 |
| 20260904151601 | 71 | 22 | 1.0 | 3.0 | 0.01 | 1.38 | 0.09 | 99 | 1015.2 |
| 20260904150019 | 70 | 360 | 0.0 | 1.0 | 0.01 | 1.38 | 0.09 | 99 | 1015.1 |
| 20260904143024 | 69 | 355 | 0.0 | 2.0 | 0.00 | 1.98 | 0.08 | 99 | 1014.9 |
| 20260904141624 | 69 | 355 | 1.0 | 3.0 | 0.00 | 1.98 | 0.08 | 99 | 1014.7 |
| 20260904140035 | 69 | 233 | 0.0 | 0.0 | 0.00 | 1.98 | 0.08 | 99 | 1014.5 |
| 20260904134620 | 68 | 231 | 0.0 | 0.0 | 0.00 | 2.13 | 0.08 | 99 | 1014.6 |
| 20260904133028 | 68 | 232 | 0.0 | 0.0 | 0.00 | 2.13 | 0.08 | 99 | 1014.9 |
| 20260904131614 | 67 | 232 | 0.0 | 0.0 | 0.00 | 2.13 | 0.08 | 99 | 1014.7 |
| 20260904130024 | 67 | 232 | 0.0 | 0.0 | 0.00 | 2.13 | 0.08 | 99 | 1014.8 |
| 20260904124559 | 67 | 235 | 0.0 | 0.0 | 0.00 | 2.25 | 0.08 | 99 | 1014.9 |
| 20260904123023 | 66 | 235 | 0.0 | 0.0 | 0.00 | 2.25 | 0.08 | 99 | 1015.0 |
| 20260904121554 | 65 | 235 | 0.0 | 0.0 | 0.00 | 2.25 | 0.08 | 99 | 1015.2 |
| 20260904120021 | 64 | 235 | 0.0 | 0.0 | 0.00 | 2.25 | 0.08 | 99 | 1015.1 |
| 20260904114605 | 64 | 235 | 0.0 | 0.0 | 0.00 | 2.60 | 0.08 | 98 | 1014.9 |
| 20260904113033 | 64 | 235 | 0.0 | 0.0 | 0.00 | 2.60 | 0.08 | 98 | 1014.7 |
| 20260904111553 | 64 | 235 | 0.0 | 0.0 | 0.00 | 2.60 | 0.08 | 98 | 1014.4 |
| 20260904110034 | 64 | 235 | 0.0 | 0.0 | 0.00 | 2.60 | 0.08 | 98 | 1014.2 |
| 20260904104605 | 64 | 235 | 0.0 | 0.0 | 0.00 | 2.60 | 0.08 | 98 | 1014.3 |
| 20260904103021 | 64 | 235 | 0.0 | 0.0 | 0.00 | 2.60 | 0.08 | 98 | 1014.4 |
| 20260904101555 | 64 | 235 | 0.0 | 0.0 | 0.00 | 2.60 | 0.08 | 98 | 1014.3 |
| 20260904100017 | 64 | 235 | 0.0 | 0.0 | 0.00 | 2.60 | 0.08 | 98 | 1014.0 |
| 20260904094559 | 64 | 235 | 0.0 | 0.0 | 0.00 | 2.60 | 0.08 | 98 | 1013.9 |
| 20260904093033 | 65 | 232 | 0.0 | 0.0 | 0.00 | 2.60 | 0.08 | 98 | 1013.9 |
| 20260904091508 | 65 | 232 | 0.0 | 0.0 | 0.00 | 2.60 | 0.08 | 98 | 1013.9 |
| 20260904090049 | 65 | 232 | 0.0 | 0.0 | 0.00 | 2.60 | 0.08 | 98 | 1013.9 |
| 20260904084611 | 65 | 232 | 0.0 | 0.0 | 0.00 | 2.60 | 0.08 | 98 | 1014.0 |
| 20260904083036 | 65 | 232 | 0.0 | 0.0 | 0.00 | 2.60 | 0.08 | 98 | 1014.0 |
| 20260904081610 | 65 | 232 | 0.0 | 0.0 | 0.00 | 2.60 | 0.08 | 98 | 1013.8 |
| 20260904080041 | 66 | 232 | 0.0 | 0.0 | 0.00 | 2.60 | 0.08 | 98 | 1013.7 |
| 20260904074604 | 66 | 232 | 0.0 | 0.0 | 0.00 | 2.60 | 0.08 | 98 | 1013.5 |
| 20260904073051 | 66 | 232 | 0.0 | 0.0 | 0.00 | 2.60 | 0.08 | 98 | 1013.7 |
| 20260904071544 | 67 | 232 | 0.0 | 0.0 | 0.00 | 2.60 | 0.08 | 98 | 1013.6 |
| 20260904070045 | 67 | 232 | 0.0 | 0.0 | 0.00 | 2.60 | 0.08 | 98 | 1013.6 |
| 20260904064504 | 67 | 232 | 0.0 | 0.0 | 0.00 | 2.60 | 0.08 | 98 | 1013.6 |
| 20260904063049 | 67 | 224 | 0.0 | 2.0 | 0.01 | 2.60 | 0.08 | 98 | 1013.7 |
| 20260904061519 | 67 | 269 | 1.0 | 5.0 | 0.02 | 2.60 | 0.08 | 98 | 1013.6 |
| 20260904060047 | 67 | 267 | 1.0 | 4.0 | 0.05 | 2.60 | 0.08 | 98 | 1013.6 |
| 20260904054511 | 67 | 220 | 1.0 | 4.0 | 0.06 | 2.60 | 0.08 | 98 | 1014.1 |
| 20260904053003 | 68 | 255 | 0.0 | 5.0 | 0.07 | 2.59 | 0.07 | 98 | 1014.0 |
| 20260904051556 | 68 | 317 | 0.0 | 0.0 | 0.06 | 2.58 | 0.06 | 98 | 1014.4 |
| 20260904050019 | 68 | 314 | 0.0 | 0.0 | 0.03 | 2.54 | 0.03 | 98 | 1013.9 |
| 20260904044601 | 68 | 217 | 0.0 | 0.0 | 0.02 | 2.54 | 0.02 | 98 | 1013.5 |
| 20260904043032 | 68 | 243 | 0.0 | 3.0 | 0.00 | 2.52 | 0.00 | 98 | 1013.4 |
| 20260904041612 | 68 | 254 | 0.0 | 3.0 | 0.00 | 2.52 | 0.00 | 98 | 1013.4 |
| 20260904040021 | 68 | 252 | 0.0 | 2.0 | 0.00 | 2.52 | 0.00 | 98 | 1013.5 |
| 20260904034606 | 68 | 268 | 0.0 | 3.0 | 0.00 | 2.52 | 2.52 | 98 | 1013.7 |
| 20260904033016 | 68 | 213 | 0.0 | 3.0 | 0.00 | 2.52 | 2.52 | 98 | 1013.7 |
| 20260904031502 | 68 | 219 | 0.0 | 4.0 | 0.00 | 2.52 | 2.52 | 98 | 1013.6 |
| 20260904030034 | 68 | 203 | 0.0 | 2.0 | 0.00 | 2.52 | 2.52 | 98 | 1013.6 |
| 20260904023013 | 68 | 221 | 0.0 | 3.0 | 0.00 | 2.52 | 2.52 | 98 | 1014.0 |
| 20260904021536 | 68 | 188 | 0.0 | 0.0 | 0.00 | 2.52 | 2.52 | 98 | 1013.9 |
| 20260904020005 | 68 | 188 | 0.0 | 1.0 | 0.02 | 2.52 | 2.52 | 98 | 1014.3 |
| 20260904014542 | 68 | 194 | 0.0 | 0.0 | 0.00 | 0.00 | 2.52 | 98 | 1014.1 |
| 20260904013002 | 68 | 182 | 1.0 | 3.0 | 0.09 | 2.82 | 2.52 | 97 | 1013.9 |